User: anonymous
Location: Albany
(35.0000°S, 118.0000°E)
Time: 00:23:39
(UTC-04:00)
Language:

JAS-1B - Orbit

View from above orbital plane
View from above orbital plane
View from above satellite
View from above satellite

Ground track
Ground track

The orbit data is extracted from the following two-line orbital elements,

1 20480U 90013C   14292.47577200  .00000012  00000-0  90877-4 0  8781
2 20480 099.0618 232.3144 0540913 072.3571 041.8250 12.83397282157070
Epoch (UTC): 19 October 2014 11:25:06
Eccentricity: 0.0540913
inclination: 99.0618°
perigee height: 911 km
apogee height: 1744 km
right ascension of ascending node: 232.3144°
argument of perigee: 72.3571°
revolutions per day: 12.83397282
mean anomaly at epoch: 41.8250°
orbit number at epoch: 15707

The dashed part of the orbit path shows where the satellite is in the earth's shadow,  

DLR